[[{"header":{"parameterUnit":"m.s-1","parameterCategory":2,"la1":30.2991,"la2":30.254,"lo1":-89.0895,"lo2":-89.0444,"dy":0.0017,"dx":0.0017,"nx":28,"ny":28,"refTime":"2025-04-29T09:00:00:Z","depth":"0","parameterNumber":2,"parameterNumberName":"U-component_of_CURRENTS"},"data":[0,0,0,0,0,0,0,0,0,0,0,0,0,0,0,0,0,0,0,0,0,0,0,0,0,0,0,0,0,0,0,0,0,0,0,0,0,0,0,0,0,0,0,0,0,0,0,0,0,0,0,0,0,0,0,0,0,0,0.2144,0.2144,0,0.2129,0.2128,0.2128,0.2094,0.2094,0.2094,0.2093,0.2048,0.2048,0.2047,0,0,0,0,0,0,0,0,0,0,0,0,0,0.2162,0.2161,0.2144,0.2144,0.2144,0.2129,0.2128,0.2128,0.2095,0.2094,0.2093,0.2093,0.2049,0.2048,0.2047,0,0,0,0,0,0,0,0,0,0,0,0,0,0.2149,0.2161,0.2144,0.2127,0.2126,0.2129,0.2128,0.2128,0.2095,0.2094,0.2093,0.2093,0.2049,0.2048,0.2047,0.2054,0,0,0.2043,0.2043,0,0,0,0,0,0,0,0,0.215,0.2148,0.213,0.2128,0.2127,0.2115,0.2118,0.2102,0.2095,0.2104,0.2093,0.2092,0.207,0.2067,0.2063,0.2052,0.205,0.2043,0.2042,0.2042,0.2042,0,0,0,0,0,0,0,0.2151,0.2149,0.2136,0.213,0.2128,0.2127,0.2124,0.2115,0.2089,0.2103,0.2101,0.2103,0.2068,0.2064,0.2061,0.2049,0.2043,0.2042,0.2041,0.2041,0.2063,0.2065,0,0,0,0,0,0,0.2157,0.2149,0.2136,0.2135,0.2139,0.2127,0.2124,0.2117,0.2089,0.2085,0.2104,0.2102,0.2066,0.2063,0.206,0.2081,0.2042,0.2041,0.204,0.2062,0.2064,0.2065,0,0,0,0,0,0,0.2157,0.2155,0.2137,0.2144,0.2142,0.2128,0.2121,0.2118,0.2113,0.2091,0.2086,0.2103,0.2066,0.2061,0.2062,0.2078,0.204,0.2039,0.2061,0.2063,0.2064,0.2114,0,0,0,0,0,0,0.2158,0.2155,0.2155,0.2145,0.2142,0.2141,0.2122,0.2118,0.2116,0.2113,0.2088,0.2083,0.2065,0.2064,0.2061,0.2076,0.2038,0.2059,0.2061,0.2064,0.2111,0.2117,0.2123,0,0,0,0,0,0.2158,0.2157,0.2154,0.2153,0.214,0.2142,0.2141,0.2126,0.2117,0.2118,0.2108,0.2084,0.2077,0.2064,0.206,0.2075,0.2058,0.2061,0.2064,0.2108,0.2116,0.2123,0,0,0,0,0,0,0.2163,0.2154,0.215,0.2146,0.2148,0.2137,0.2138,0.2132,0.2124,0.2121,0.2097,0.2092,0.2103,0.2085,0.2072,0.2091,0.2065,0.2067,0.21,0.2107,0.2113,0.2113,0.2038,0,0,0,0,0,0.2167,0.2162,0.2159,0.2157,0.2159,0.2151,0.215,0.2144,0.2137,0.2132,0.2119,0.211,0.2113,0.2106,0.2104,0.2109,0.2099,0.2118,0.2125,0.213,0.2128,0.2145,0.2153,0.2074,0.2074,0.2074,0,0,0.2168,0.2164,0.2161,0.2159,0.2156,0.2161,0.2148,0.2151,0.2155,0.213,0.2132,0.2133,0.2122,0.2134,0.2136,0.2117,0.2147,0.2133,0.2138,0.2133,0.2149,0.2157,0.2163,0.2076,0.2076,0.2076,0,0,0.2169,0.2167,0.2164,0.2167,0.2171,0.2171,0.2175,0.2172,0.217,0.2179,0.217,0.2183,0.2173,0.2175,0.2174,0.2213,0.2186,0.2212,0.2232,0.225,0.2256,0.2261,0.2256,0.2261,0.2207,0.2207,0.2207,0,0.2173,0.2165,0.2166,0.2169,0.2172,0.2177,0.218,0.2187,0.2185,0.2192,0.2184,0.2201,0.2194,0.2214,0.223,0.2226,0.2223,0.2203,0.2257,0.2262,0.2267,0.2261,0.2265,0.221,0.221,0.221,0.2209,0,0.217,0.2169,0.2171,0.2174,0.2182,0.2187,0.2199,0.221,0.2215,0.2222,0.2247,0.225,0.2254,0.2265,0.2257,0.2292,0.2274,0.2269,0.2236,0.2278,0.2268,0.2272,0.2214,0.2213,0.2212,0.2212,0,0,0.2157,0.2166,0.2165,0.2163,0.2184,0.2184,0.221,0.2228,0.224,0.2258,0.2273,0.2301,0.2306,0.2306,0.2307,0.2324,0.2359,0.2311,0.2311,0.2302,0.2383,0.23,0.2295,0.2364,0.2365,0.2366,0.2361,0,0.2152,0.2151,0.2162,0.2165,0.2165,0.2187,0.2206,0.223,0.2252,0.2272,0.2298,0.2313,0.232,0.2324,0.2349,0.236,0.2372,0.236,0.2347,0.2346,0.2264,0.2298,0.2159,0.2137,0.2365,0.2365,0.2366,0,0.2136,0.2139,0.2138,0.215,0.2153,0.2162,0.2191,0.221,0.2257,0.2276,0.2312,0.2325,0.2361,0.2356,0.2398,0.2389,0.239,0.2396,0.2395,0.2301,0.227,0.2133,0.2135,0.2048,0.2371,0.2371,0.237,0,0.2105,0.2116,0.2112,0.2116,0.2139,0.2147,0.2165,0.221,0.2227,0.2278,0.2291,0.2342,0.2353,0.2384,0.24,0.24,0.2433,0.2431,0.2355,0.2348,0.2217,0.2196,0.2126,0.2454,0.2454,0.2454,0.2454,0,0.2082,0.2075,0.2094,0.2089,0.209,0.212,0.2131,0.2165,0.2212,0.223,0.2284,0.2302,0.2362,0.2384,0.2404,0.2386,0.2436,0.2359,0.2345,0.2229,0.2211,0.2118,0.2092,0.2454,0.2454,0.2454,0.2454,0,0.204,0.2053,0.2045,0.2065,0.2071,0.207,0.2101,0.2114,0.2165,0.2191,0.2203,0.2273,0.2303,0.2343,0.2386,0.2367,0.2275,0.235,0.2198,0.2166,0.1996,0.1978,0.1803,0.1766,0.226,0.2257,0.2256,0,0.2015,0.2009,0.2018,0.2011,0.2017,0.2024,0.2031,0.2085,0.2102,0.2166,0.2172,0.2214,0.2227,0.2253,0.223,0.2224,0.2186,0.2092,0.2067,0.1963,0.1934,0.1849,0.1828,0.1915,0.1911,0.1907,0.1905,0,0.1974,0.1978,0.1974,0.1959,0.1957,0.195,0.1966,0.1972,0.2033,0.2049,0.2079,0.2094,0.2107,0.2034,0.2018,0.2012,0.1939,0.2016,0.1952,0.169,0.1549,0.1514,0.1939,0.1873,0.1876,0.1878,0.188,0.1881,0.1943,0.1926,0.1919,0.1896,0.189,0.1863,0.1833,0.1855,0.1854,0.1853,0.194,0.1903,0.1873,0.1821,0.1797,0.1638,0.1694,0.1569,0.1566,0.1499,0.1419,0.1762,0.1654,0.1656,0.1657,0.1659,0.166,0,0.1892,0.1874,0.1854,0.1814,0.1773,0.1791,0.1773,0.1728,0.1688,0.1705,0.1703,0.1608,0.1499,0.1467,0.1307,0.1201,0.1157,0.1161,0.1023,0.1041,0.1375,0.1316,0.1074,0.1074,0.1075,0.1075,0.1075,0.1075,0.1865,0.1821,0.18,0.1704,0.1673,0.1583,0.1551,0.1503,0.1482,0.1384,0.1306,0.1304,0.1237,0.1029,0.0864,0.0852,0.0785,0.0667,0.0748,0.0986,0.1025,0.1061,0.1,0.0696,0.0696,0.0338,0.0335,0.0333]},{"header":{"parameterUnit":"m.s-1","parameterCategory":2,"la1":30.2991,"la2":30.254,"lo1":-89.0895,"lo2":-89.0444,"dy":0.0017,"dx":0.0017,"nx":28,"ny":28,"refTime":"2025-04-29T09:00:00:Z","depth":"0","parameterNumber":3,"parameterNumberName":"V-component_of_CURRENTS"},"data":[0,0,0,0,0,0,0,0,0,0,0,0,0,0,0,0,0,0,0,0,0,0,0,0,0,0,0,0,0,0,0,0,0,0,0,0,0,0,0,0,0,0,0,0,0,0,0,0,0,0,0,0,0,0,0,0,0,0,0.0429,0.0429,0,0.0445,0.0445,0.0445,0.0441,0.0441,0.0441,0.0441,0.0439,0.0439,0.0439,0,0,0,0,0,0,0,0,0,0,0,0,0,0.0379,0.038,0.0429,0.0429,0.0429,0.0445,0.0445,0.0445,0.0441,0.0441,0.0441,0.044,0.0439,0.0439,0.0439,0,0,0,0,0,0,0,0,0,0,0,0,0,0.0398,0.038,0.0429,0.043,0.043,0.0445,0.0445,0.0445,0.0441,0.0441,0.0441,0.044,0.0439,0.0439,0.0439,0.0448,0,0,0.044,0.044,0,0,0,0,0,0,0,0,0.0397,0.04,0.0429,0.043,0.043,0.0441,0.0427,0.0445,0.0441,0.0436,0.0441,0.044,0.0439,0.0439,0.0442,0.0448,0.0448,0.044,0.044,0.044,0.044,0,0,0,0,0,0,0,0.0395,0.0399,0.0434,0.043,0.043,0.0424,0.0427,0.043,0.0438,0.0437,0.0437,0.044,0.0439,0.0442,0.0442,0.0448,0.044,0.044,0.044,0.044,0.0459,0.0459,0,0,0,0,0,0,0.0397,0.0398,0.0434,0.0435,0.0413,0.0426,0.0428,0.0437,0.0439,0.0439,0.044,0.044,0.0441,0.0441,0.0442,0.0466,0.044,0.044,0.0441,0.0459,0.0459,0.046,0,0,0,0,0,0,0.0396,0.04,0.0433,0.0417,0.0421,0.0427,0.0437,0.0438,0.0442,0.0442,0.0441,0.0444,0.0441,0.0441,0.0451,0.0465,0.0441,0.0441,0.0458,0.0459,0.0459,0.0505,0,0,0,0,0,0,0.0394,0.04,0.0406,0.0417,0.0422,0.0447,0.0438,0.0439,0.0445,0.0445,0.0445,0.0444,0.0441,0.045,0.0451,0.0465,0.0441,0.0458,0.0459,0.0459,0.0503,0.0507,0.051,0,0,0,0,0,0.0393,0.0406,0.0407,0.0411,0.0431,0.0448,0.045,0.0452,0.0446,0.0453,0.0453,0.0444,0.0454,0.0451,0.0452,0.0466,0.0458,0.0458,0.0459,0.0501,0.0506,0.051,0,0,0,0,0,0,0.0388,0.0408,0.0408,0.0427,0.0437,0.0447,0.0455,0.0454,0.046,0.0459,0.0453,0.0453,0.0465,0.0458,0.0454,0.0471,0.0453,0.0454,0.0485,0.0489,0.0493,0.0503,0.0441,0,0,0,0,0,0.0391,0.0406,0.042,0.0435,0.0442,0.0448,0.0454,0.0457,0.0463,0.0465,0.0466,0.0465,0.0469,0.0473,0.0473,0.0487,0.0473,0.0494,0.0497,0.0501,0.0508,0.0501,0.0505,0.0462,0.0462,0.0462,0,0,0.0392,0.0405,0.0413,0.0435,0.0443,0.0464,0.0451,0.0465,0.0483,0.0464,0.0486,0.0479,0.0475,0.049,0.0494,0.0486,0.0503,0.0502,0.0505,0.051,0.0502,0.0507,0.051,0.0463,0.0463,0.0462,0,0,0.0408,0.0417,0.0436,0.045,0.0467,0.0474,0.048,0.0493,0.0498,0.0516,0.0507,0.051,0.0517,0.052,0.052,0.0544,0.0522,0.0539,0.057,0.0564,0.0567,0.057,0.0551,0.0552,0.0543,0.0543,0.0543,0,0.0408,0.0439,0.0444,0.0468,0.0485,0.0482,0.0509,0.0516,0.053,0.0544,0.0528,0.0542,0.0534,0.0557,0.0562,0.0554,0.054,0.0556,0.0569,0.0572,0.0575,0.0554,0.0554,0.0545,0.0545,0.0545,0.0544,0,0.0443,0.0467,0.0481,0.0513,0.0529,0.0552,0.0566,0.058,0.0582,0.0592,0.0612,0.0598,0.0606,0.0601,0.0589,0.0605,0.0585,0.0574,0.0561,0.0582,0.0558,0.0558,0.0548,0.0548,0.0547,0.0546,0,0,0.0448,0.0496,0.0502,0.0529,0.0557,0.0578,0.0607,0.064,0.0669,0.0665,0.0696,0.0691,0.0678,0.0676,0.0657,0.065,0.0646,0.062,0.0619,0.0605,0.0621,0.0612,0.0611,0.0637,0.0638,0.0638,0.0595,0,0.0476,0.0532,0.0548,0.0602,0.0634,0.0646,0.0677,0.0703,0.0719,0.0745,0.0729,0.0744,0.0708,0.0708,0.0696,0.0663,0.0648,0.0658,0.0599,0.0597,0.0591,0.0612,0.0652,0.0618,0.0595,0.0595,0.0595,0,0.0509,0.0545,0.0602,0.066,0.0675,0.0703,0.076,0.0789,0.0819,0.083,0.0837,0.0818,0.0808,0.0766,0.0723,0.0729,0.0679,0.0645,0.0643,0.062,0.0589,0.0594,0.0618,0.0633,0.0594,0.0594,0.0594,0,0.0523,0.0585,0.0634,0.0654,0.0713,0.0742,0.0773,0.0816,0.0855,0.088,0.0898,0.0884,0.0872,0.0818,0.0741,0.0732,0.0684,0.0662,0.0604,0.0602,0.0619,0.0618,0.0657,0.0626,0.0626,0.0626,0.0626,0,0.0554,0.0593,0.0645,0.0675,0.0738,0.0768,0.0836,0.0866,0.0912,0.0966,0.0937,0.0962,0.0884,0.0843,0.0765,0.0689,0.0701,0.0616,0.0598,0.0634,0.0635,0.0634,0.0629,0.0624,0.0625,0.0625,0.0625,0,0.0566,0.0598,0.0659,0.0724,0.0748,0.0793,0.0873,0.0924,0.0957,0.102,0.1024,0.102,0.0976,0.0886,0.0801,0.0726,0.0655,0.0613,0.0654,0.0641,0.0604,0.06,0.0596,0.0602,0.0549,0.0549,0.0549,0,0.0578,0.0611,0.0689,0.073,0.0761,0.083,0.0883,0.0942,0.1002,0.1062,0.1095,0.1066,0.1067,0.0936,0.0812,0.0683,0.0657,0.0615,0.0607,0.0619,0.06,0.0597,0.0603,0.0639,0.0639,0.064,0.064,0,0.0602,0.0627,0.0678,0.0756,0.0817,0.089,0.0969,0.1024,0.1098,0.1149,0.1208,0.1209,0.1101,0.1016,0.0838,0.0739,0.0652,0.0617,0.063,0.0679,0.0679,0.0672,0.0637,0.0643,0.0643,0.0643,0.0643,0.0643,0.0616,0.0651,0.0713,0.0787,0.0857,0.0942,0.1005,0.1094,0.1188,0.1274,0.1286,0.1307,0.1201,0.0982,0.0861,0.0696,0.0676,0.065,0.0642,0.0637,0.0659,0.0625,0.061,0.061,0.0609,0.0609,0.0609,0,0.0631,0.0673,0.0742,0.0829,0.0899,0.0937,0.1057,0.1125,0.1232,0.1321,0.1374,0.136,0.1238,0.1074,0.0867,0.0763,0.0717,0.0701,0.0728,0.073,0.0707,0.073,0.0742,0.0742,0.0742,0.0742,0.0742,0.0742,0.0641,0.0697,0.0731,0.0839,0.0903,0.0994,0.106,0.117,0.1259,0.1364,0.1405,0.1436,0.1371,0.1079,0.0902,0.0835,0.0806,0.0764,0.0738,0.0749,0.0745,0.0741,0.0764,0.0782,0.0782,0.0794,0.0794,0.0794]}],[{"header":{"parameterUnit":"m.s-1","parameterCategory":2,"la1":30.2991,"la2":30.254,"lo1":-89.0895,"lo2":-89.0444,"dy":0.0017,"dx":0.0017,"nx":28,"ny":28,"refTime":"2025-04-29T09:00:00:Z","depth":"2","parameterNumber":2,"parameterNumberName":"U-component_of_CURRENTS"},"data":[0,0,0,0,0,0,0,0,0,0,0,0,0,0,0,0,0,0,0,0,0,0,0,0,0,0,0,0,0,0,0,0,0,0,0,0,0,0,0,0,0,0,0,0,0,0,0,0,0,0,0,0,0,0,0,0,0,0,0.1895,0.1895,0,0.1886,0.1886,0.1886,0.1869,0.1869,0.1868,0.1868,0.1851,0.1851,0.1851,0,0,0,0,0,0,0,0,0,0,0,0,0,0.1911,0.191,0.1895,0.1895,0.1895,0.1886,0.1886,0.1886,0.1869,0.1869,0.1868,0.1868,0.1851,0.1851,0.185,0,0,0,0,0,0,0,0,0,0,0,0,0,0.1901,0.191,0.1895,0.1887,0.1886,0.1886,0.1886,0.1885,0.1869,0.1869,0.1868,0.1868,0.1851,0.1851,0.185,0.1852,0,0,0.1849,0.1849,0,0,0,0,0,0,0,0,0.1902,0.1901,0.1888,0.1887,0.1887,0.188,0.1885,0.1875,0.1869,0.1873,0.1868,0.1868,0.1861,0.186,0.1856,0.1852,0.1851,0.1849,0.1849,0.1849,0.1848,0,0,0,0,0,0,0,0.1903,0.1901,0.1889,0.1888,0.1887,0.1889,0.1887,0.1883,0.1867,0.1873,0.1872,0.1874,0.1861,0.1857,0.1856,0.1851,0.1849,0.1849,0.1848,0.1848,0.1882,0.1884,0,0,0,0,0,0,0.1907,0.1902,0.189,0.1889,0.1896,0.1889,0.1886,0.1881,0.1867,0.1866,0.1875,0.1874,0.1858,0.1857,0.1855,0.1886,0.1849,0.1848,0.1848,0.1881,0.1883,0.1884,0,0,0,0,0,0,0.1907,0.1905,0.189,0.1897,0.1896,0.1889,0.1883,0.1881,0.1884,0.1869,0.1867,0.188,0.1858,0.1856,0.1865,0.1884,0.1848,0.1847,0.188,0.1882,0.1883,0.1928,0,0,0,0,0,0,0.1907,0.1905,0.1907,0.1897,0.1895,0.1895,0.1883,0.1881,0.1886,0.1885,0.1873,0.1871,0.1857,0.1866,0.1864,0.1882,0.1847,0.1878,0.1881,0.1883,0.1925,0.1931,0.1936,0,0,0,0,0,0.1908,0.1907,0.1907,0.1906,0.1896,0.1896,0.1895,0.1889,0.1887,0.189,0.1888,0.1872,0.1879,0.1866,0.1864,0.1883,0.1877,0.188,0.1883,0.1923,0.193,0.1936,0,0,0,0,0,0,0.1914,0.1905,0.1905,0.1901,0.1903,0.1894,0.1898,0.1896,0.1897,0.1899,0.1883,0.1881,0.19,0.1886,0.1873,0.1901,0.1877,0.1879,0.1908,0.1915,0.192,0.1921,0.1847,0,0,0,0,0,0.1918,0.1915,0.1911,0.191,0.1913,0.1909,0.191,0.1908,0.1907,0.1906,0.1902,0.1901,0.1909,0.1907,0.191,0.192,0.1913,0.1933,0.1939,0.1943,0.1944,0.1962,0.1969,0.1893,0.1893,0.1893,0,0,0.192,0.1917,0.1914,0.1913,0.1913,0.1917,0.1909,0.1915,0.1922,0.1905,0.1917,0.1923,0.1918,0.1935,0.1941,0.1924,0.1961,0.1947,0.1951,0.1949,0.1965,0.1973,0.1979,0.1895,0.1894,0.1894,0,0,0.1923,0.1922,0.192,0.1924,0.193,0.193,0.1936,0.1937,0.1941,0.1955,0.1952,0.197,0.1971,0.1976,0.1977,0.2015,0.1996,0.2019,0.204,0.2058,0.2064,0.2069,0.2066,0.2071,0.2015,0.2015,0.2015,0,0.1929,0.1921,0.1922,0.1925,0.193,0.1938,0.1943,0.1951,0.1957,0.1967,0.1965,0.1993,0.1991,0.2015,0.2031,0.2028,0.2027,0.2013,0.2065,0.207,0.2074,0.207,0.2074,0.2018,0.2017,0.2017,0.2017,0,0.1926,0.1927,0.1929,0.1933,0.1942,0.1949,0.1962,0.1977,0.199,0.1999,0.2033,0.2039,0.2053,0.2063,0.2058,0.2095,0.208,0.2075,0.2045,0.2085,0.2077,0.2081,0.2021,0.202,0.202,0.2019,0,0,0.1916,0.1924,0.1925,0.1926,0.1947,0.1948,0.1976,0.1997,0.2014,0.2038,0.206,0.2092,0.2103,0.2106,0.211,0.2127,0.2163,0.2117,0.2117,0.211,0.219,0.211,0.2106,0.2168,0.2169,0.217,0.2169,0,0.1913,0.1914,0.1924,0.1931,0.1932,0.1956,0.1977,0.2003,0.203,0.2056,0.2085,0.2109,0.2117,0.2128,0.2152,0.2163,0.2176,0.2162,0.2156,0.2155,0.2077,0.211,0.1923,0.1901,0.2173,0.2174,0.2174,0,0.1899,0.1903,0.1907,0.1921,0.1925,0.1938,0.1973,0.1995,0.2044,0.2068,0.211,0.2127,0.2167,0.2163,0.2205,0.2197,0.2199,0.2203,0.2203,0.2115,0.2083,0.1907,0.1898,0.2181,0.218,0.218,0.2179,0,0.1874,0.1886,0.1887,0.1892,0.1917,0.1931,0.1952,0.2,0.2022,0.208,0.2097,0.2151,0.2169,0.2198,0.2214,0.2213,0.2247,0.2242,0.2169,0.2163,0.1994,0.1971,0.2266,0.2266,0.2266,0.2266,0.2266,0,0.1854,0.1852,0.1875,0.1873,0.1882,0.1913,0.1934,0.197,0.2021,0.2043,0.21,0.212,0.2181,0.2204,0.2221,0.2204,0.2252,0.2175,0.2161,0.2003,0.1982,0.2216,0.221,0.2266,0.2266,0.2266,0.2266,0,0.1818,0.1833,0.1831,0.1857,0.1866,0.1874,0.1915,0.1931,0.1988,0.2018,0.2035,0.2104,0.2134,0.2173,0.2213,0.2192,0.2195,0.2173,0.1975,0.1937,0.2095,0.2092,0.2091,0.2088,0.2086,0.2084,0.2082,0,0.1797,0.1793,0.1811,0.181,0.1821,0.1839,0.1852,0.1911,0.1931,0.1998,0.2004,0.2051,0.206,0.2085,0.2059,0.2051,0.2138,0.1874,0.1839,0.2093,0.208,0.208,0.208,0.1632,0.1627,0.1623,0.1619,0,0.176,0.1768,0.1769,0.1765,0.1773,0.1772,0.1797,0.1807,0.187,0.1888,0.1916,0.1928,0.1939,0.1839,0.1825,0.1807,0.1862,0.1786,0.2105,0.1707,0.166,0.1648,0.1663,0.1582,0.1585,0.1588,0.159,0.1592,0.1733,0.1721,0.1722,0.1709,0.1713,0.1694,0.167,0.1695,0.1698,0.1697,0.1775,0.1721,0.1726,0.1598,0.1537,0.1485,0.163,0.1559,0.1572,0.159,0.1538,0.149,0.1369,0.1372,0.1374,0.1376,0.1377,0,0.1687,0.1676,0.1664,0.1636,0.1604,0.1631,0.1617,0.1574,0.1538,0.1544,0.1538,0.1381,0.128,0.129,0.1131,0.1117,0.1113,0.1084,0.1061,0.1099,0.1133,0.1059,0.0762,0.076,0.0759,0.0757,0,0,0.1664,0.1627,0.1608,0.153,0.1513,0.1439,0.1413,0.1363,0.1335,0.1258,0.1194,0.1247,0.1255,0.1004,0.0957,0.0828,0.0967,0.0793,0.1286,0.1299,0.1331,0.1404,0.1332,0,0,0,0,0]},{"header":{"parameterUnit":"m.s-1","parameterCategory":2,"la1":30.2991,"la2":30.254,"lo1":-89.0895,"lo2":-89.0444,"dy":0.0017,"dx":0.0017,"nx":28,"ny":28,"refTime":"2025-04-29T09:00:00:Z","depth":"2","parameterNumber":3,"parameterNumberName":"V-component_of_CURRENTS"},"data":[0,0,0,0,0,0,0,0,0,0,0,0,0,0,0,0,0,0,0,0,0,0,0,0,0,0,0,0,0,0,0,0,0,0,0,0,0,0,0,0,0,0,0,0,0,0,0,0,0,0,0,0,0,0,0,0,0,0,0.025,0.025,0,0.0265,0.0265,0.0265,0.0269,0.0269,0.0269,0.0268,0.0274,0.0274,0.0274,0,0,0,0,0,0,0,0,0,0,0,0,0,0.0209,0.021,0.025,0.025,0.0251,0.0265,0.0265,0.0265,0.0269,0.0269,0.0269,0.0268,0.0274,0.0274,0.0274,0,0,0,0,0,0,0,0,0,0,0,0,0,0.0225,0.021,0.025,0.0255,0.0255,0.0265,0.0265,0.0265,0.0269,0.0269,0.0269,0.0268,0.0274,0.0274,0.0274,0.0277,0,0,0.0275,0.0275,0,0,0,0,0,0,0,0,0.0224,0.0227,0.0254,0.0254,0.0255,0.0265,0.0253,0.0269,0.0269,0.0263,0.0268,0.0268,0.0271,0.0271,0.0273,0.0277,0.0278,0.0275,0.0275,0.0275,0.0276,0,0,0,0,0,0,0,0.0223,0.0226,0.0255,0.0254,0.0255,0.025,0.0253,0.0256,0.0266,0.0263,0.0264,0.0267,0.0271,0.0273,0.0273,0.0278,0.0275,0.0275,0.0276,0.0276,0.029,0.029,0,0,0,0,0,0,0.0224,0.0225,0.0255,0.0256,0.024,0.0251,0.0254,0.0262,0.0266,0.0267,0.0267,0.0267,0.0273,0.0273,0.0274,0.0295,0.0275,0.0276,0.0276,0.0289,0.029,0.029,0,0,0,0,0,0,0.0223,0.0227,0.0254,0.0241,0.0244,0.0252,0.0261,0.0262,0.0267,0.0269,0.027,0.0271,0.0273,0.0273,0.0282,0.0294,0.0276,0.0276,0.0289,0.029,0.029,0.0326,0,0,0,0,0,0,0.0222,0.0226,0.0232,0.0241,0.0245,0.0265,0.0261,0.0262,0.0269,0.027,0.0273,0.0274,0.0273,0.0282,0.0283,0.0294,0.0276,0.0289,0.0289,0.029,0.0325,0.0328,0.033,0,0,0,0,0,0.022,0.0231,0.0232,0.0236,0.0253,0.0266,0.0267,0.0272,0.027,0.0276,0.0278,0.0274,0.0285,0.0283,0.0283,0.0295,0.0289,0.0289,0.029,0.0323,0.0327,0.033,0,0,0,0,0,0,0.0216,0.0233,0.0234,0.0249,0.0258,0.0267,0.0274,0.0274,0.0281,0.0282,0.028,0.028,0.0292,0.0286,0.0284,0.0299,0.0285,0.0285,0.031,0.0313,0.0316,0.0326,0.0277,0,0,0,0,0,0.0217,0.0231,0.0242,0.0254,0.026,0.0266,0.0272,0.0276,0.0282,0.0285,0.0289,0.029,0.0294,0.0298,0.0299,0.031,0.0298,0.0316,0.0319,0.0321,0.0329,0.0319,0.0321,0.0292,0.0292,0.0291,0,0,0.0218,0.023,0.0236,0.0254,0.0261,0.0279,0.027,0.0282,0.0298,0.0285,0.0306,0.03,0.0298,0.0311,0.0315,0.0309,0.0322,0.0322,0.0324,0.033,0.0319,0.0322,0.0325,0.0292,0.0292,0.0292,0,0,0.023,0.0238,0.0254,0.0266,0.0281,0.0288,0.0292,0.0305,0.0311,0.0327,0.0321,0.0324,0.0332,0.0333,0.0334,0.0352,0.0335,0.0349,0.0376,0.0366,0.0368,0.037,0.0354,0.0354,0.0352,0.0352,0.0352,0,0.023,0.0257,0.026,0.0281,0.0296,0.0294,0.0318,0.0324,0.0338,0.035,0.0339,0.0351,0.0344,0.0362,0.0367,0.036,0.0348,0.0365,0.037,0.0372,0.0374,0.0356,0.0356,0.0354,0.0354,0.0354,0.0354,0,0.0258,0.028,0.0291,0.032,0.0334,0.0353,0.0365,0.0378,0.0382,0.0391,0.0408,0.0395,0.0404,0.0398,0.0389,0.0399,0.0385,0.0374,0.0364,0.0379,0.0359,0.0359,0.0357,0.0356,0.0356,0.0355,0,0,0.0263,0.0304,0.0309,0.0334,0.0359,0.0377,0.0401,0.043,0.0456,0.0452,0.0479,0.0473,0.0463,0.0462,0.0446,0.0435,0.0429,0.0412,0.0411,0.04,0.0403,0.0401,0.0399,0.0419,0.0419,0.0419,0.0383,0,0.0287,0.0336,0.0349,0.0397,0.0426,0.0436,0.0463,0.0485,0.05,0.0523,0.0505,0.052,0.0489,0.0491,0.0476,0.0446,0.043,0.0439,0.0387,0.0385,0.0385,0.04,0.0408,0.0378,0.0383,0.0382,0.0382,0,0.0316,0.0347,0.0398,0.0449,0.0463,0.0489,0.0539,0.0564,0.0589,0.0599,0.0604,0.0588,0.0576,0.0539,0.0495,0.0504,0.0457,0.0425,0.0422,0.041,0.0382,0.0364,0.0377,0.0381,0.0381,0.0381,0.0381,0,0.033,0.0384,0.0429,0.0446,0.0498,0.0525,0.0553,0.059,0.0626,0.0647,0.0665,0.0647,0.0639,0.0585,0.0515,0.0506,0.0458,0.0436,0.0388,0.0386,0.0379,0.0377,0.0398,0.0398,0.0398,0.0398,0.0399,0,0.0357,0.0394,0.0441,0.0467,0.0526,0.0551,0.0615,0.0641,0.0683,0.0731,0.0704,0.0725,0.065,0.0611,0.0537,0.0468,0.0474,0.0399,0.0382,0.0391,0.0391,0.0382,0.038,0.0397,0.0397,0.0398,0.0398,0,0.0369,0.0399,0.0454,0.0513,0.0536,0.0579,0.0655,0.0702,0.0732,0.0789,0.0794,0.0787,0.0745,0.066,0.0575,0.0504,0.0431,0.0398,0.0412,0.0398,0.0356,0.0357,0.0345,0.0345,0.0345,0.0345,0.0345,0,0.0381,0.0411,0.0484,0.0523,0.0553,0.0619,0.0669,0.0723,0.0778,0.0831,0.086,0.0835,0.083,0.0707,0.0591,0.047,0.0438,0.0381,0.0365,0.0369,0.0353,0.0354,0.0355,0.0362,0.0362,0.0362,0.0362,0,0.0403,0.0427,0.0473,0.0549,0.0609,0.0679,0.0754,0.0804,0.087,0.0915,0.0966,0.0963,0.0861,0.0761,0.0598,0.0505,0.0403,0.0377,0.0382,0.0379,0.0383,0.0368,0.0369,0.0362,0.0362,0.0362,0.0362,0.0362,0.0417,0.045,0.0509,0.0581,0.0649,0.0729,0.0788,0.0869,0.0954,0.1024,0.1032,0.1025,0.091,0.0712,0.0573,0.0415,0.0425,0.0348,0.0348,0.0349,0.0362,0.0366,0.0344,0.0344,0.0344,0.0344,0.0344,0,0.0433,0.0473,0.0538,0.0622,0.069,0.073,0.0839,0.0896,0.0991,0.1057,0.1099,0.0967,0.0868,0.0719,0.0509,0.0384,0.036,0.0314,0.0322,0.0324,0.0325,0.0337,0.0312,0.0311,0.0311,0.031,0,0,0.0443,0.0497,0.0528,0.0633,0.0698,0.0787,0.0848,0.0938,0.1004,0.1058,0.1061,0.1071,0.091,0.0741,0.0577,0.0453,0.0407,0.0408,0.0449,0.0481,0.0484,0.0362,0.0385,0,0,0,0,0]}],[{"header":{"parameterUnit":"m.s-1","parameterCategory":2,"la1":30.2991,"la2":30.254,"lo1":-89.0895,"lo2":-89.0444,"dy":0.0017,"dx":0.0017,"nx":28,"ny":28,"refTime":"2025-04-29T09:00:00:Z","depth":"4","parameterNumber":2,"parameterNumberName":"U-component_of_CURRENTS"},"data":[0,0,0,0,0,0,0,0,0,0,0,0,0,0,0,0,0,0,0,0,0,0,0,0,0,0,0,0,0,0,0,0,0,0,0,0,0,0,0,0,0,0,0,0,0,0,0,0,0,0,0,0,0,0,0,0,0,0,0.1141,0.1141,0,0.116,0.1161,0.1161,0.1189,0.119,0.119,0.1191,0.1245,0.1246,0.1247,0,0,0,0,0,0,0,0,0,0,0,0,0,0.1134,0.1134,0.1141,0.1141,0.1142,0.116,0.1161,0.1161,0.1189,0.119,0.119,0.1191,0.1245,0.1246,0.1247,0,0,0,0,0,0,0,0,0,0,0,0,0,0.1142,0.1133,0.1141,0.1159,0.1161,0.116,0.1161,0.1161,0.1189,0.119,0.1191,0.1191,0.1244,0.1246,0.1247,0.1237,0,0,0.1251,0.1251,0,0,0,0,0,0,0,0,0.1142,0.1142,0.1156,0.1158,0.116,0.1174,0.1178,0.1188,0.1189,0.1177,0.1191,0.1192,0.1225,0.1228,0.1227,0.1239,0.1241,0.1251,0.1252,0.1252,0.1253,0,0,0,0,0,0,0,0.1141,0.1142,0.1147,0.1156,0.1159,0.1168,0.117,0.118,0.1195,0.1178,0.118,0.1184,0.1226,0.1226,0.1229,0.1242,0.1251,0.1252,0.1253,0.1253,0.1331,0.1332,0,0,0,0,0,0,0.114,0.1141,0.1147,0.1148,0.1154,0.1168,0.117,0.1168,0.1194,0.1199,0.1183,0.1186,0.1223,0.1227,0.1231,0.1289,0.1252,0.1254,0.1254,0.133,0.1331,0.1333,0,0,0,0,0,0,0.1139,0.114,0.1146,0.1146,0.1148,0.1167,0.1164,0.1168,0.1194,0.1198,0.1204,0.1209,0.1224,0.1229,0.1262,0.1289,0.1254,0.1255,0.1328,0.133,0.1332,0.1362,0,0,0,0,0,0,0.1139,0.1139,0.1151,0.1146,0.1148,0.1161,0.1164,0.1167,0.1194,0.1197,0.1222,0.1226,0.1225,0.126,0.1263,0.129,0.1256,0.1327,0.1329,0.1331,0.1359,0.1364,0.1369,0,0,0,0,0,0.1138,0.1143,0.1151,0.1153,0.1159,0.1161,0.1163,0.1179,0.1194,0.1206,0.1227,0.1227,0.1278,0.1262,0.1266,0.1293,0.1326,0.1329,0.1331,0.1357,0.1363,0.1369,0,0,0,0,0,0,0.1147,0.1146,0.1155,0.1161,0.117,0.1167,0.1183,0.1193,0.1217,0.1232,0.1237,0.1243,0.1285,0.1285,0.1267,0.1324,0.1304,0.1308,0.1323,0.1329,0.1333,0.1335,0.1257,0,0,0,0,0,0.1154,0.1159,0.116,0.1169,0.1176,0.1186,0.1196,0.1206,0.1219,0.1232,0.125,0.1273,0.1294,0.1309,0.1325,0.1351,0.1352,0.1374,0.1379,0.1383,0.1389,0.1414,0.1422,0.1342,0.1342,0.1342,0,0,0.116,0.1162,0.1167,0.1173,0.1183,0.1192,0.1194,0.1215,0.1231,0.1234,0.1274,0.1293,0.1306,0.1338,0.1357,0.1345,0.1405,0.1387,0.139,0.1393,0.1418,0.1426,0.1432,0.1344,0.1344,0.1344,0,0,0.1166,0.1179,0.1184,0.1193,0.1211,0.1215,0.1227,0.1241,0.1262,0.1293,0.1305,0.134,0.1369,0.1383,0.1393,0.1435,0.1432,0.1449,0.1472,0.1497,0.1504,0.151,0.1511,0.1517,0.1448,0.1448,0.1448,0,0.1181,0.118,0.1189,0.1196,0.1208,0.1229,0.124,0.1257,0.1284,0.1306,0.1314,0.1376,0.1389,0.1426,0.1444,0.1446,0.1454,0.1446,0.1503,0.1509,0.1514,0.1514,0.152,0.145,0.145,0.145,0.1449,0,0.1179,0.1193,0.1199,0.1214,0.1229,0.1244,0.1264,0.1294,0.1325,0.1344,0.1401,0.1421,0.1458,0.147,0.147,0.152,0.151,0.1507,0.1484,0.1524,0.1521,0.1527,0.1453,0.1452,0.1451,0.1451,0,0,0.1172,0.1193,0.1199,0.1211,0.1241,0.1248,0.1288,0.1321,0.1354,0.1396,0.1437,0.1482,0.1507,0.152,0.1532,0.1554,0.1595,0.1552,0.1552,0.1546,0.164,0.1515,0.1509,0.1606,0.1607,0.1608,0.1619,0,0.1173,0.1185,0.12,0.1224,0.1232,0.1268,0.1299,0.1339,0.1381,0.1428,0.1468,0.1515,0.1522,0.155,0.1576,0.1595,0.1613,0.1591,0.1609,0.1609,0.1488,0.1513,0.1613,0.1623,0.1625,0.1626,0.1626,0,0.116,0.1172,0.1193,0.1227,0.1236,0.1262,0.1321,0.1353,0.1422,0.146,0.1519,0.155,0.1603,0.1599,0.1652,0.1641,0.1648,0.1653,0.1654,0.1531,0.1494,0.158,0.1636,0.1635,0.1634,0.1634,0.1633,0,0.1134,0.1165,0.1184,0.1195,0.1238,0.127,0.1306,0.1372,0.1409,0.1492,0.1526,0.1592,0.1631,0.1661,0.1681,0.1677,0.1721,0.1712,0.1601,0.1592,0.1688,0.1682,0.1745,0.1745,0.1745,0.1745,0.1745,0,0.111,0.1127,0.1179,0.1187,0.1223,0.1264,0.1317,0.1365,0.1439,0.1476,0.1548,0.1579,0.1653,0.1683,0.1694,0.1658,0.1734,0.1605,0.1589,0.1699,0.1694,0.1691,0.1685,0.1745,0.1745,0.1745,0.1745,0,0.1069,0.1103,0.1127,0.1185,0.1209,0.1239,0.1317,0.1349,0.143,0.1481,0.151,0.159,0.1621,0.1663,0.1705,0.1656,0.1645,0.1614,0.1721,0.1711,0.1494,0.149,0.1483,0.1479,0.1475,0.1472,0.147,0,0.1044,0.1054,0.1121,0.1141,0.1173,0.1226,0.1258,0.1342,0.1373,0.1467,0.1477,0.1541,0.1578,0.1532,0.1591,0.1584,0.1569,0.1545,0.1524,0.1484,0.147,0.1471,0.1471,0.1464,0.1463,0.1462,0.1461,0,0.0998,0.1037,0.1059,0.11,0.1139,0.1167,0.1221,0.1234,0.1318,0.1401,0.1405,0.1411,0.1434,0.1455,0.1458,0.1456,0.155,0.1507,0.1514,0.1494,0.146,0.145,0.1455,0.1449,0.145,0.1451,0.1452,0,0.0974,0.0979,0.1018,0.1042,0.1087,0.1089,0.1125,0.1147,0.1184,0.1284,0.1283,0.1345,0.142,0.1388,0.1395,0.1376,0.1353,0.1302,0.132,0.1334,0.1279,0.1214,0.1111,0,0,0,0,0,0.0941,0.0933,0.0953,0.0968,0.1008,0.1031,0.1087,0.1123,0.1204,0.1171,0.1222,0.1234,0.123,0.1269,0.1219,0.1328,0.1362,0.1262,0.1314,0.1379,0.1393,0.1341,0,0,0,0,0,0,0.0916,0.0933,0.0926,0.09,0.0899,0.0926,0.0958,0.1011,0.0997,0.1085,0.1094,0.1154,0.1178,0.1249,0.1196,0.1205,0.1208,0.1306,0.1302,0.1371,0.1384,0.1395,0.1347,0,0,0,0,0]},{"header":{"parameterUnit":"m.s-1","parameterCategory":2,"la1":30.2991,"la2":30.254,"lo1":-89.0895,"lo2":-89.0444,"dy":0.0017,"dx":0.0017,"nx":28,"ny":28,"refTime":"2025-04-29T09:00:00:Z","depth":"4","parameterNumber":3,"parameterNumberName":"V-component_of_CURRENTS"},"data":[0,0,0,0,0,0,0,0,0,0,0,0,0,0,0,0,0,0,0,0,0,0,0,0,0,0,0,0,0,0,0,0,0,0,0,0,0,0,0,0,0,0,0,0,0,0,0,0,0,0,0,0,0,0,0,0,0,0,0.0145,0.0145,0,0.0157,0.0157,0.0158,0.0167,0.0167,0.0167,0.0167,0.0179,0.0179,0.0179,0,0,0,0,0,0,0,0,0,0,0,0,0,0.0117,0.0117,0.0145,0.0145,0.0145,0.0157,0.0157,0.0158,0.0167,0.0167,0.0167,0.0167,0.0179,0.0179,0.0179,0,0,0,0,0,0,0,0,0,0,0,0,0,0.0129,0.0118,0.0145,0.0152,0.0152,0.0157,0.0157,0.0158,0.0167,0.0167,0.0167,0.0167,0.0178,0.0179,0.0179,0.0178,0,0,0.018,0.018,0,0,0,0,0,0,0,0,0.0128,0.013,0.015,0.0151,0.0152,0.0161,0.0152,0.0164,0.0167,0.0161,0.0167,0.0168,0.0173,0.0173,0.0175,0.0178,0.0179,0.018,0.018,0.018,0.018,0,0,0,0,0,0,0,0.0127,0.0129,0.015,0.0151,0.0152,0.015,0.0152,0.0154,0.0166,0.0162,0.0162,0.0164,0.0173,0.0175,0.0175,0.0179,0.018,0.018,0.018,0.018,0.019,0.019,0,0,0,0,0,0,0.0127,0.0129,0.0149,0.015,0.0141,0.015,0.0152,0.0158,0.0166,0.0167,0.0164,0.0165,0.0174,0.0175,0.0176,0.0191,0.018,0.0181,0.0181,0.019,0.019,0.019,0,0,0,0,0,0,0.0126,0.0129,0.0149,0.0139,0.0142,0.0151,0.0156,0.0158,0.0164,0.0167,0.0169,0.0169,0.0174,0.0175,0.0184,0.0191,0.0181,0.0181,0.019,0.019,0.019,0.0211,0,0,0,0,0,0,0.0126,0.0129,0.0133,0.014,0.0142,0.0156,0.0156,0.0158,0.0165,0.0165,0.0172,0.0173,0.0175,0.0183,0.0184,0.0191,0.0181,0.019,0.019,0.019,0.021,0.0212,0.0213,0,0,0,0,0,0.0125,0.0131,0.0133,0.0136,0.0148,0.0156,0.0158,0.0164,0.0165,0.0169,0.0174,0.0173,0.0184,0.0184,0.0184,0.0192,0.019,0.019,0.019,0.021,0.0212,0.0213,0,0,0,0,0,0,0.012,0.0133,0.0135,0.0145,0.0152,0.0158,0.0163,0.0165,0.0173,0.0175,0.0176,0.0178,0.0187,0.0185,0.0184,0.0194,0.0186,0.0186,0.0201,0.0202,0.0204,0.0211,0.0181,0,0,0,0,0,0.0121,0.0131,0.0139,0.0147,0.0151,0.0157,0.0161,0.0166,0.0172,0.0175,0.018,0.0184,0.0187,0.0191,0.0193,0.0201,0.0192,0.0205,0.0206,0.0207,0.0213,0.02,0.0201,0.0191,0.0191,0.0191,0,0,0.0121,0.013,0.0135,0.0147,0.0153,0.0165,0.016,0.0169,0.0181,0.0175,0.0192,0.019,0.019,0.0199,0.0202,0.0199,0.0205,0.0208,0.0209,0.0214,0.0201,0.0202,0.0203,0.0191,0.0191,0.0191,0,0,0.0128,0.0134,0.0146,0.0154,0.0165,0.0171,0.0174,0.0184,0.019,0.0202,0.02,0.0202,0.0211,0.0211,0.0212,0.0222,0.0212,0.0222,0.0238,0.0226,0.0227,0.0228,0.0216,0.0215,0.0224,0.0224,0.0224,0,0.0128,0.0146,0.0149,0.0164,0.0175,0.0175,0.0192,0.0197,0.0208,0.0217,0.0212,0.0221,0.0217,0.0228,0.0231,0.0226,0.0218,0.0233,0.0229,0.0229,0.0229,0.0217,0.0216,0.0225,0.0225,0.0225,0.0225,0,0.0145,0.0161,0.0169,0.019,0.02,0.0214,0.0223,0.0233,0.0238,0.0245,0.0255,0.0246,0.0254,0.0248,0.0244,0.0247,0.024,0.0231,0.0225,0.0232,0.0218,0.0216,0.0227,0.0226,0.0226,0.0226,0,0,0.0146,0.0176,0.018,0.0199,0.0218,0.023,0.0248,0.0268,0.0287,0.0284,0.0303,0.0297,0.0291,0.0291,0.0279,0.0266,0.0257,0.0253,0.0252,0.0243,0.0231,0.0226,0.0224,0.0248,0.0248,0.0248,0.022,0,0.0162,0.0195,0.0206,0.0241,0.0261,0.027,0.029,0.0306,0.0318,0.0334,0.0318,0.033,0.0308,0.0311,0.0294,0.0272,0.0255,0.0265,0.0224,0.0223,0.022,0.0223,0.0248,0.0219,0.0219,0.0218,0.0218,0,0.0179,0.0202,0.0238,0.0277,0.0286,0.0307,0.0344,0.0363,0.038,0.0388,0.039,0.0379,0.0368,0.0341,0.0301,0.031,0.0274,0.0246,0.0244,0.0233,0.0216,0.0211,0.0216,0.0216,0.0216,0.0216,0.0216,0,0.0186,0.0226,0.0258,0.0271,0.031,0.0331,0.0355,0.0382,0.041,0.0426,0.0441,0.0422,0.0419,0.037,0.0318,0.031,0.0267,0.0249,0.0206,0.0205,0.0209,0.0208,0.0211,0.0212,0.0212,0.0212,0.0212,0,0.0202,0.0229,0.0266,0.0286,0.033,0.0351,0.04,0.042,0.0455,0.049,0.0471,0.0486,0.0426,0.0394,0.0333,0.0273,0.0279,0.0212,0.02,0.0218,0.0219,0.0208,0.0208,0.0211,0.0211,0.0211,0.0211,0,0.0205,0.0229,0.027,0.0316,0.0336,0.037,0.0435,0.0471,0.0497,0.054,0.0546,0.0541,0.0504,0.0436,0.0363,0.0302,0.0238,0.021,0.0242,0.0231,0.0178,0.0179,0.0161,0.016,0.016,0.016,0.0159,0,0.021,0.0231,0.0291,0.0322,0.0348,0.0402,0.0442,0.0489,0.0531,0.0573,0.0593,0.0575,0.0555,0.0454,0.0379,0.0267,0.0242,0.0199,0.0179,0.0184,0.0173,0.0175,0.0177,0.0159,0.0159,0.0159,0.0159,0,0.0219,0.024,0.0275,0.0337,0.0387,0.0444,0.0505,0.0539,0.0591,0.0612,0.0631,0.0583,0.0543,0.0461,0.0378,0.0293,0.0223,0.0195,0.0195,0.0175,0.0182,0.0172,0.0174,0.0158,0.0158,0.0158,0.0158,0,0.0226,0.0249,0.0295,0.0351,0.0412,0.0472,0.0505,0.0556,0.0599,0.0641,0.0647,0.0603,0.0585,0.0476,0.04,0.0319,0.0286,0.0236,0.0232,0.0233,0.0258,0.0277,0.0275,0,0,0,0,0,0.0231,0.0258,0.0308,0.0371,0.043,0.0468,0.0542,0.0573,0.0619,0.0633,0.0642,0.0603,0.0504,0.0475,0.0392,0.0381,0.0265,0.0278,0.0204,0.0152,0.0153,0.0169,0,0,0,0,0,0,0.0236,0.0278,0.0303,0.0375,0.0419,0.0489,0.0536,0.057,0.0584,0.0614,0.0572,0.0558,0.0472,0.0547,0.0381,0.0361,0.0295,0.0241,0.0239,0.0151,0.0152,0.0153,0.017,0,0,0,0,0]}]]